Location: Casteau
(50.5142°N, 4.0161°E)
Time: 03:14:11
(UTC+00:00)

Cosmos 2285 Rocket - Pass Details

Date: 18 September 2020
Orbit: 970 x 1000 km, 74.0° (Epoch: 24 October)

Event Time Altitude Azimuth Distance (km) Brightness Sun altitude
Rises 19:32:58 0° 176° (S) 3,652 6.7 -16.7°
Reaches altitude 10° 19:35:37 10° 170° (S) 2,712 6.0 -17.0°
Maximum altitude 19:41:24 41° 102° (ESE) 1,393 4.3 -17.9°
Drops below altitude 10° 19:47:16 10° 35° (NE) 2,745 6.3 -18.7°
Sets 19:49:57 0° 29° (NNE) 3,702 7.0 -19.1°
